Weather History for Statesville, NC

Change the Weather History Date:

Thursday, February 14, 2013

  Actual Average (KHKY) Record (KHKY)
Temperature  
Mean Temperature 39 °F -  
Max Temperature 50 °F 53 °F 76 °F (1949)
Min Temperature 28 °F 31 °F 15 °F (1988)
Degree Days  
Heating Degree Days 26    
Moisture  
Dew Point 30 °F    
Average Humidity 70    
Maximum Humidity 100    
Minimum Humidity 42    
Precipitation  
Precipitation 0.00 in - - ()
Sea Level Pressure  
Sea Level Pressure 29.99 in    
Wind  
Wind Speed 3 mph (SW)    
Max Wind Speed 12 mph    
Max Gust Speed 20 mph    
Visibility 10 miles    
Events      
Averages and records for this station are not official NWS values.
T = Trace of Precipitation, MM = Missing Value Source: NWS Daily Summary

Daily Weather History Graph

Daily Weather History Graph

Search for Another Location

Airport:

Trip Planner

Search our weather history database for the weather conditions in past years. The results will help you decide how hot, cold, wet, or windy it might be!

Date:

Astronomy

Feb. 14, 2013 Rise Set
Actual Time 7:11 AM EST 6:04 PM EST
Civil Twilight 6:45 AM EST 6:31 PM EST
Nautical Twilight 6:15 AM EST 7:01 PM EST
Astronomical Twilight 5:45 AM EST 7:30 PM EST
Moon 9:23 AM EST (2/14) 10:54 PM EST (2/14)
Length of Visible Light 11h 45m
Length of Day
10h 53m
Waxing Crescent, 21% of the Moon is Illuminated
Feb 14
Waxing Crescent
Feb 17
First Quarter
Feb 25
Full
Mar 4
Last Quarter
Mar 11
New

Hourly Weather History & Observations

Time (EST) Temp. Windchill Dew Point Humidity Pressure Visibility Wind Dir Wind Speed Gust Speed Precip Events Conditions
12:15 AM 36.1 °F 31.4 °F 31.8 °F 84% 29.86 in 10.0 mi West 5.8 mph - N/A   Clear
12:35 AM 36.0 °F 31.1 °F 31.3 °F 83% 29.87 in 10.0 mi West 5.8 mph - N/A   Clear
2:18 AM 35.6 °F - 30.2 °F 81% 29.89 in 10.0 mi Calm Calm - N/A   Clear
2:39 AM 33.8 °F 30.8 °F 28.4 °F 81% 29.90 in 10.0 mi West 3.5 mph - N/A   Clear
2:58 AM 35.6 °F 32.8 °F 28.4 °F 75% 29.90 in 10.0 mi West 3.5 mph - N/A   Clear
3:18 AM 33.8 °F 29.6 °F 28.4 °F 81% 29.90 in 10.0 mi West 4.6 mph - N/A   Clear
3:37 AM 35.6 °F 31.7 °F 28.4 °F 75% 29.91 in 10.0 mi WNW 4.6 mph - N/A   Clear
3:57 AM 33.8 °F 28.6 °F 28.4 °F 81% 29.91 in 10.0 mi WNW 5.8 mph - N/A   Clear
4:18 AM 35.6 °F - 28.4 °F 75% 29.92 in 10.0 mi Calm Calm - N/A   Clear
4:38 AM 30.2 °F - 28.4 °F 93% 29.92 in 10.0 mi Calm Calm - N/A   Clear
4:57 AM 30.2 °F - 28.4 °F 93% 29.93 in 10.0 mi Calm Calm - N/A   Clear
5:19 AM 28.4 °F - 28.4 °F 100% 29.94 in 7.0 mi Calm Calm - N/A   Clear
5:37 AM 30.2 °F - 28.4 °F 93% 29.94 in 10.0 mi Calm Calm - N/A   Clear
5:59 AM 28.4 °F - 28.4 °F 100% 29.95 in 7.0 mi Calm Calm - N/A   Clear
6:17 AM 28.4 °F - 28.4 °F 100% 29.96 in 7.0 mi Calm Calm - N/A   Clear
6:38 AM 28.4 °F - 28.4 °F 100% 29.97 in 7.0 mi Calm Calm - N/A   Clear
6:57 AM 28.4 °F - 26.6 °F 93% 29.97 in 7.0 mi Calm Calm - N/A   Clear
7:19 AM 30.2 °F - 28.4 °F 93% 29.98 in 10.0 mi Calm Calm - N/A   Clear
7:58 AM 28.4 °F - 26.6 °F 93% 29.99 in 5.0 mi Calm Calm - N/A   Clear
8:19 AM 30.2 °F - 28.4 °F 93% 30.03 in 7.0 mi Calm Calm - N/A   Clear
8:37 AM 33.8 °F - 30.2 °F 87% 30.04 in 10.0 mi Calm Calm - N/A   Clear
8:55 AM 32.5 °F - 30.2 °F 91% 30.04 in 7.0 mi Calm Calm - N/A   Clear
9:15 AM 35.1 °F - 31.6 °F 87% 30.04 in 10.0 mi Calm Calm - N/A   Clear
9:35 AM 37.9 °F - 32.4 °F 80% 30.05 in 10.0 mi Calm Calm - N/A   Clear
9:55 AM 40.1 °F - 31.1 °F 70% 30.04 in 10.0 mi Calm Calm - N/A   Clear
10:15 AM 42.4 °F - 32.2 °F 67% 30.04 in 10.0 mi Calm Calm - N/A   Clear
10:35 AM 42.8 °F - 30.6 °F 62% 30.04 in 10.0 mi Calm Calm - N/A   Clear
10:55 AM 43.7 °F - 30.2 °F 59% 30.04 in 10.0 mi Calm Calm - N/A   Clear
11:15 AM 44.6 °F - 30.4 °F 57% 30.02 in 10.0 mi Calm Calm - N/A   Clear
11:35 AM 45.0 °F 42.6 °F 29.3 °F 54% 30.04 in 10.0 mi South 4.6 mph - N/A   Clear
11:55 AM 45.7 °F 44.4 °F 29.7 °F 54% 30.03 in 10.0 mi WSW 3.5 mph - N/A   Clear
12:15 PM 46.8 °F - 29.7 °F 51% 30.03 in 10.0 mi SW 3.5 mph - N/A   Clear
12:35 PM 47.3 °F - 28.6 °F 48% 30.02 in 10.0 mi SW 6.9 mph - N/A   Clear
12:55 PM 48.6 °F - 28.0 °F 45% 30.02 in 10.0 mi SW 8.1 mph 16.1 mph N/A   Clear
1:15 PM 49.5 °F - 27.9 °F 43% 30.01 in 10.0 mi SW 11.5 mph - N/A   Clear
1:35 PM 49.1 °F - 27.5 °F 43% 30.00 in 10.0 mi WSW 8.1 mph 19.6 mph N/A   Clear
1:55 PM 50.0 °F - 29.3 °F 45% 29.99 in 10.0 mi SSW 8.1 mph - N/A   Clear
2:15 PM 50.2 °F - 29.1 °F 44% 29.97 in 10.0 mi South 4.6 mph - N/A   Clear
2:35 PM 50.7 °F - 29.8 °F 45% 29.97 in 10.0 mi SSW 9.2 mph - N/A   Clear
2:55 PM 50.4 °F - 29.8 °F 45% 29.97 in 10.0 mi SW 6.9 mph - N/A   Clear
3:15 PM 50.9 °F - 29.8 °F 44% 29.98 in 10.0 mi WSW 10.4 mph - N/A   Clear
3:35 PM 50.7 °F - 28.6 °F 42% 29.97 in 10.0 mi SW 9.2 mph 17.3 mph N/A   Clear
3:55 PM 50.0 °F - 29.5 °F 45% 29.98 in 10.0 mi SW 5.8 mph - N/A   Clear
4:15 PM 50.2 °F - 28.6 °F 43% 29.98 in 10.0 mi SSW 6.9 mph - N/A   Clear
4:35 PM 50.0 °F - 28.6 °F 44% 29.98 in 10.0 mi SW 6.9 mph - N/A   Clear
4:55 PM 50.5 °F - 29.7 °F 45% 29.97 in 10.0 mi SSW 9.2 mph - N/A   Clear
5:15 PM 50.0 °F - 29.7 °F 46% 29.97 in 10.0 mi SSW 5.8 mph - N/A   Clear
5:35 PM 49.1 °F - 29.7 °F 47% 29.97 in 10.0 mi SSW 4.6 mph - N/A   Clear
5:55 PM 48.0 °F - 30.2 °F 50% 29.97 in 10.0 mi SW 4.6 mph - N/A   Clear
6:15 PM 47.1 °F - 30.2 °F 52% 29.98 in 10.0 mi Calm Calm - N/A   Clear
6:35 PM 45.9 °F 44.6 °F 30.4 °F 55% 29.99 in 10.0 mi SSW 3.5 mph - N/A   Clear
6:55 PM 43.9 °F 42.3 °F 30.7 °F 60% 29.99 in 10.0 mi South 3.5 mph - N/A   Clear
7:15 PM 44.2 °F - 31.1 °F 60% 29.99 in 10.0 mi Calm Calm - N/A   Clear
7:35 PM 42.8 °F - 31.3 °F 64% 29.99 in 10.0 mi Calm Calm - N/A   Clear
7:55 PM 40.8 °F - 31.5 °F 69% 29.99 in 10.0 mi Calm Calm - N/A   Clear
8:15 PM 37.8 °F - 30.9 °F 76% 30.01 in 10.0 mi Calm Calm - N/A   Clear
8:35 PM 39.4 °F - 31.3 °F 73% 30.01 in 10.0 mi Calm Calm - N/A   Clear
8:55 PM 37.8 °F 35.3 °F 30.7 °F 76% 30.02 in 10.0 mi SSW 3.5 mph - N/A   Clear
9:15 PM 38.3 °F - 31.1 °F 75% 30.03 in 10.0 mi Calm Calm - N/A   Clear
9:35 PM 37.4 °F - 31.3 °F 79% 30.04 in 10.0 mi Calm Calm - N/A   Clear
9:55 PM 35.6 °F - 31.1 °F 84% 30.04 in 10.0 mi Calm Calm - N/A   Clear
10:15 PM 34.0 °F 31.0 °F 31.1 °F 89% 30.04 in 10.0 mi SSW 3.5 mph - N/A   Clear
10:35 PM 33.6 °F 29.4 °F 30.9 °F 90% 30.04 in 10.0 mi SSW 4.6 mph - N/A   Clear
10:55 PM 37.4 °F - 31.3 °F 79% 30.04 in 10.0 mi Calm Calm - N/A   Clear
11:15 PM 37.4 °F - 31.1 °F 78% 30.04 in 10.0 mi Calm Calm - N/A   Clear
11:35 PM 36.0 °F 33.3 °F 31.1 °F 82% 30.04 in 10.0 mi SSW 3.5 mph - N/A   Clear
11:55 PM 35.1 °F - 30.9 °F 85% 30.04 in 10.0 mi Calm Calm - N/A   Clear